Tracking 33199 objects as of 16-Feb-2026
HD Live streaming from Space Station
objects crossing your sky now

STARLINK-11189

Track STARLINK-11189 now!
10-day predictions
STARLINK-11189 is classified as:


NORAD ID: 60188
Int'l Code: 2024-124F
Perigee: 366.1 km
Apogee: 367.7 km
Inclination: 53.2 °
Period: 91.7 minutes
Semi major axis: 6737 km
RCS: Unknown
Launch date: July 3, 2024
Source: United States (US)
Launch site: AIR FORCE EASTERN TEST RANGE (AFETR)
Your satellite tracking list
Your tracking list is empty




NASA's NSSDC Master Catalog

Two Line Element Set (TLE):
1 60188U 24124F   26047.58086022 -.00001861  00000-0 -10510-4 0  9995
2 60188  53.1565 265.6842 0001193 110.4335 249.6811 15.69691357 93212
Source of the keplerian elements: AFSPC